PAL1146 RPVI-RPLL

Flight info

Callsign PAL1146
Flight time 0h 42m
Altitude 30000
Route LAMBO1N LAMBO B472 IBAGO IBAGO3R
Aircraft A21N/M-SDE3FGHIRWY/LB1

Departure

Time 2026-04-25 15:44
Airport Iloilo International Airport (RPVI)

Arrival

Time 2026-04-25 16:27
Airport Ninoy Aquino International Airport (RPLL)
Time Latitude Longitude Altitude Speed Heading
2026-04-25 15:29 10.83165 122.49659 175 ft 0 kts 110°
2026-04-25 15:33 10.83165 122.49658 175 ft 0 kts 110°
2026-04-25 15:33 10.83170 122.49644 175 ft 2 kts 110°
2026-04-25 15:33 10.83175 122.49631 175 ft 2 kts 110°
2026-04-25 15:33 10.83182 122.49617 175 ft 2 kts 133°
2026-04-25 15:34 10.83194 122.49607 175 ft 2 kts 148°
2026-04-25 15:34 10.83207 122.49601 175 ft 2 kts 167°
2026-04-25 15:34 10.83223 122.49599 175 ft 2 kts 185°
2026-04-25 15:34 10.83232 122.49601 175 ft 1 kts 197°
2026-04-25 15:35 10.83239 122.49604 175 ft 0 kts 200°
2026-04-25 15:37 10.83235 122.49603 175 ft 1 kts 200°
2026-04-25 15:37 10.83220 122.49597 175 ft 3 kts 200°
2026-04-25 15:37 10.83191 122.49586 175 ft 5 kts 199°
2026-04-25 15:38 10.83153 122.49572 175 ft 6 kts 199°
2026-04-25 15:38 10.83107 122.49556 175 ft 7 kts 200°
2026-04-25 15:38 10.83058 122.49538 175 ft 7 kts 200°
2026-04-25 15:38 10.83027 122.49513 175 ft 5 kts 249°
2026-04-25 15:39 10.83032 122.49470 175 ft 6 kts 288°
2026-04-25 15:39 10.83049 122.49420 175 ft 8 kts 290°
2026-04-25 15:39 10.83070 122.49363 176 ft 9 kts 290°
2026-04-25 15:39 10.83087 122.49298 176 ft 9 kts 268°
2026-04-25 15:40 10.83046 122.49243 176 ft 10 kts 205°
2026-04-25 15:40 10.82997 122.49223 176 ft 11 kts 200°
2026-04-25 15:40 10.82894 122.49186 176 ft 12 kts 200°
2026-04-25 15:40 10.82812 122.49155 176 ft 12 kts 200°
2026-04-25 15:41 10.82729 122.49124 176 ft 13 kts 200°
2026-04-25 15:41 10.82641 122.49092 176 ft 13 kts 200°
2026-04-25 15:41 10.82552 122.49059 176 ft 13 kts 200°
2026-04-25 15:41 10.82460 122.49024 176 ft 14 kts 200°
2026-04-25 15:42 10.82372 122.48991 176 ft 12 kts 200°
2026-04-25 15:42 10.82296 122.48983 176 ft 8 kts 176°
2026-04-25 15:42 10.82256 122.48975 176 ft 4 kts 218°
2026-04-25 15:42 10.82249 122.48959 176 ft 1 kts 279°
2026-04-25 15:43 10.82256 122.48954 176 ft 1 kts 341°
2026-04-25 15:43 10.82267 122.48953 176 ft 0 kts
2026-04-25 15:43 10.82275 122.48955 176 ft 1 kts 18°
2026-04-25 15:43 10.82317 122.48972 176 ft 23 kts 20°
2026-04-25 15:44 10.82733 122.49126 176 ft 100 kts 19°
2026-04-25 15:44 10.83599 122.49443 187 ft 159 kts 21°
2026-04-25 15:44 10.84659 122.49813 757 ft 162 kts 22°
2026-04-25 15:44 10.85710 122.50205 1440 ft 163 kts 23°
2026-04-25 15:45 10.86765 122.50603 2078 ft 162 kts 23°
2026-04-25 15:45 10.87856 122.51015 2377 ft 175 kts 23°
2026-04-25 15:45 10.89054 122.51466 2669 ft 190 kts 23°
2026-04-25 15:45 10.89912 122.51788 2870 ft 200 kts 23°
2026-04-25 15:46 10.91753 122.52475 3213 ft 226 kts 21°
2026-04-25 15:46 10.93397 122.52654 3482 ft 253 kts 352°
2026-04-25 15:46 10.95047 122.51826 3922 ft 275 kts 324°
2026-04-25 15:46 10.96528 122.50597 4605 ft 279 kts 325°
2026-04-25 15:47 10.98057 122.49378 5313 ft 281 kts 325°
2026-04-25 15:47 10.99600 122.48165 6002 ft 285 kts 325°
2026-04-25 15:47 11.01190 122.46920 6716 ft 287 kts 325°
2026-04-25 15:47 11.02765 122.45686 7417 ft 290 kts 324°
2026-04-25 15:48 11.04361 122.44435 8115 ft 292 kts 324°
2026-04-25 15:48 11.05978 122.43165 8795 ft 295 kts 324°
2026-04-25 15:48 11.07612 122.41882 9457 ft 298 kts 324°
2026-04-25 15:48 11.09254 122.40591 10107 ft 300 kts 324°
2026-04-25 15:49 11.10912 122.39292 10745 ft 303 kts 323°
2026-04-25 15:49 11.12618 122.37953 11128 ft 315 kts 323°
2026-04-25 15:49 11.14419 122.36547 11397 ft 330 kts 324°
2026-04-25 15:49 11.16381 122.35238 11651 ft 345 kts 330°
2026-04-25 15:50 11.18568 122.34104 11902 ft 358 kts 336°
2026-04-25 15:50 11.20883 122.33080 12135 ft 371 kts 338°
2026-04-25 15:50 11.23323 122.32034 12355 ft 384 kts 338°
2026-04-25 15:50 11.25825 122.30962 12561 ft 396 kts 338°
2026-04-25 15:51 11.28395 122.29859 12760 ft 407 kts 338°
2026-04-25 15:51 11.30163 122.29099 12943 ft 412 kts 337°
2026-04-25 15:51 11.33705 122.27569 13490 ft 416 kts 337°
2026-04-25 15:51 11.36413 122.26397 13929 ft 418 kts 337°
2026-04-25 15:52 11.39082 122.25240 14334 ft 421 kts 338°
2026-04-25 15:52 11.41813 122.24057 14726 ft 423 kts 337°
2026-04-25 15:52 11.44527 122.22881 15091 ft 426 kts 338°
2026-04-25 15:52 11.47272 122.21690 15451 ft 429 kts 337°
2026-04-25 15:53 11.50007 122.20504 15799 ft 431 kts 337°
2026-04-25 15:53 11.52796 122.19295 16132 ft 434 kts 337°
2026-04-25 15:53 11.55581 122.18085 16450 ft 436 kts 337°
2026-04-25 15:53 11.58381 122.16869 16762 ft 439 kts 338°
2026-04-25 15:54 11.61189 122.15649 17069 ft 441 kts 338°
2026-04-25 15:54 11.64050 122.14408 17415 ft 442 kts 337°
2026-04-25 15:54 11.66850 122.13192 18169 ft 431 kts 337°
2026-04-25 15:54 11.69545 122.12020 19122 ft 416 kts 337°
2026-04-25 15:55 11.72156 122.10886 19934 ft 405 kts 337°
2026-04-25 15:55 11.74745 122.09759 20444 ft 403 kts 336°
2026-04-25 15:55 11.77339 122.08629 20848 ft 404 kts 336°
2026-04-25 15:55 11.79929 122.07501 21256 ft 404 kts 336°
2026-04-25 15:56 11.82500 122.06381 21702 ft 404 kts 336°
2026-04-25 15:56 11.85090 122.05254 22197 ft 401 kts 336°
2026-04-25 15:56 11.87643 122.04144 22791 ft 396 kts 336°
2026-04-25 15:56 11.90167 122.03043 23307 ft 394 kts 336°
2026-04-25 15:57 11.92696 122.01940 23778 ft 392 kts 336°
2026-04-25 15:57 11.95195 122.00850 24238 ft 391 kts 336°
2026-04-25 15:57 11.97710 121.99753 24700 ft 390 kts 335°
2026-04-25 15:57 12.00181 121.98676 25154 ft 389 kts 335°
2026-04-25 15:58 12.02693 121.97581 25612 ft 388 kts 335°
2026-04-25 15:58 12.05150 121.96511 26054 ft 387 kts 335°
2026-04-25 15:58 12.07669 121.95412 26284 ft 392 kts 335°
2026-04-25 15:58 12.10184 121.94315 26634 ft 393 kts 335°
2026-04-25 15:59 12.12698 121.93220 27108 ft 391 kts 335°
2026-04-25 15:59 12.15179 121.92137 27563 ft 389 kts 335°
2026-04-25 15:59 12.17674 121.91048 27997 ft 387 kts 335°
2026-04-25 15:59 12.20144 121.89969 28416 ft 387 kts 335°
2026-04-25 16:00 12.22633 121.88882 28732 ft 389 kts 334°
2026-04-25 16:00 12.23457 121.88521 28823 ft 390 kts 335°
2026-04-25 16:00 12.27640 121.86691 29366 ft 393 kts 335°
2026-04-25 16:00 12.30162 121.85589 29745 ft 393 kts 335°
2026-04-25 16:01 12.32694 121.84481 29912 ft 400 kts 335°
2026-04-25 16:01 12.35289 121.83345 29917 ft 410 kts 335°
2026-04-25 16:01 12.37972 121.82173 29920 ft 421 kts 335°
2026-04-25 16:01 12.40704 121.80981 29923 ft 430 kts 335°
2026-04-25 16:02 12.46329 121.78527 29921 ft 448 kts 335°
2026-04-25 16:02 12.52182 121.75968 29919 ft 464 kts 335°
2026-04-25 16:03 12.58218 121.73327 29919 ft 478 kts 335°
2026-04-25 16:03 12.64403 121.70618 29918 ft 489 kts 335°
2026-04-25 16:04 12.70683 121.67867 29923 ft 491 kts 335°
2026-04-25 16:04 12.77003 121.65097 29928 ft 491 kts 335°
2026-04-25 16:05 12.83274 121.62343 29931 ft 491 kts 335°
2026-04-25 16:06 12.92691 121.58205 29943 ft 491 kts 335°
2026-04-25 16:06 12.99016 121.55423 29944 ft 491 kts 334°
2026-04-25 16:07 13.05268 121.52673 29939 ft 490 kts 334°
2026-04-25 16:07 13.11534 121.49915 29496 ft 482 kts 334°
2026-04-25 16:07 13.14610 121.48560 29238 ft 479 kts 334°
2026-04-25 16:08 13.17630 121.47229 28811 ft 477 kts 334°
2026-04-25 16:08 13.20692 121.45878 28134 ft 476 kts 334°
2026-04-25 16:08 13.23750 121.44527 27323 ft 476 kts 335°
2026-04-25 16:08 13.26791 121.43184 26434 ft 478 kts 335°
2026-04-25 16:09 13.29826 121.41845 25501 ft 480 kts 335°
2026-04-25 16:09 13.32892 121.40491 24515 ft 483 kts 335°
2026-04-25 16:09 13.36021 121.39110 23501 ft 485 kts 335°
2026-04-25 16:09 13.39077 121.37761 22842 ft 479 kts 335°
2026-04-25 16:10 13.42124 121.36416 22205 ft 473 kts 335°
2026-04-25 16:10 13.45134 121.35085 21575 ft 467 kts 335°
2026-04-25 16:10 13.48113 121.33767 20924 ft 462 kts 335°
2026-04-25 16:10 13.51055 121.32466 20279 ft 457 kts 335°
2026-04-25 16:11 13.53916 121.31143 19642 ft 452 kts 333°
2026-04-25 16:11 13.56728 121.29655 18993 ft 447 kts 330°
2026-04-25 16:11 13.59434 121.28115 18368 ft 442 kts 330°
2026-04-25 16:11 13.62087 121.26585 17736 ft 438 kts 330°
2026-04-25 16:12 13.64737 121.25054 17097 ft 434 kts 330°
2026-04-25 16:12 13.67347 121.23545 16434 ft 431 kts 330°
2026-04-25 16:12 13.69951 121.22040 15762 ft 428 kts 330°
2026-04-25 16:12 13.71683 121.21040 15324 ft 426 kts 330°
2026-04-25 16:13 13.75126 121.19051 14450 ft 422 kts 330°
2026-04-25 16:13 13.77665 121.17584 13803 ft 418 kts 330°
2026-04-25 16:13 13.80170 121.16136 13168 ft 414 kts 330°
2026-04-25 16:13 13.82687 121.14679 12531 ft 410 kts 330°
2026-04-25 16:14 13.85163 121.13245 12094 ft 401 kts 330°
2026-04-25 16:14 13.87542 121.11867 11707 ft 391 kts 330°
2026-04-25 16:14 13.89900 121.10500 11429 ft 378 kts 330°
2026-04-25 16:14 13.92148 121.09199 11177 ft 366 kts 330°
2026-04-25 16:15 13.94337 121.07932 10927 ft 354 kts 331°
2026-04-25 16:15 13.96465 121.06698 10700 ft 343 kts 331°
2026-04-25 16:15 13.98501 121.05518 10498 ft 332 kts 331°
2026-04-25 16:15 14.00483 121.04368 10309 ft 321 kts 331°
2026-04-25 16:16 14.02417 121.03245 10146 ft 310 kts 331°
2026-04-25 16:16 14.04257 121.02177 9976 ft 298 kts 331°
2026-04-25 16:16 14.06049 121.01136 9588 ft 288 kts 332°
2026-04-25 16:16 14.07771 121.00136 9232 ft 284 kts 332°
2026-04-25 16:17 14.09481 120.99146 8877 ft 283 kts 332°
2026-04-25 16:17 14.11230 120.98132 8509 ft 282 kts 332°
2026-04-25 16:17 14.12933 120.97144 8159 ft 281 kts 332°
2026-04-25 16:17 14.14626 120.96162 7815 ft 279 kts 332°
2026-04-25 16:18 14.16323 120.95178 7468 ft 278 kts 332°
2026-04-25 16:18 14.16884 120.94853 7352 ft 278 kts 332°
2026-04-25 16:18 14.19669 120.93218 6776 ft 276 kts 332°
2026-04-25 16:18 14.21348 120.92223 6431 ft 274 kts 332°
2026-04-25 16:19 14.22986 120.91252 6096 ft 273 kts 332°
2026-04-25 16:19 14.24650 120.90267 5749 ft 272 kts 332°
2026-04-25 16:19 14.26281 120.89303 5405 ft 270 kts 332°
2026-04-25 16:20 14.29537 120.87385 4733 ft 268 kts 332°
2026-04-25 16:20 14.31158 120.86437 4404 ft 266 kts 332°
2026-04-25 16:20 14.34371 120.84560 3870 ft 257 kts 332°
2026-04-25 16:21 14.35887 120.83670 3775 ft 244 kts 333°
2026-04-25 16:21 14.37313 120.82832 3669 ft 225 kts 333°
2026-04-25 16:21 14.38692 120.82322 3589 ft 197 kts
2026-04-25 16:21 14.39946 120.82710 3425 ft 185 kts 36°
2026-04-25 16:22 14.40781 120.83692 3214 ft 181 kts 59°
2026-04-25 16:22 14.41387 120.84816 3003 ft 180 kts 61°
2026-04-25 16:22 14.41996 120.85960 2790 ft 180 kts 61°
2026-04-25 16:22 14.42601 120.87080 2567 ft 180 kts 61°
2026-04-25 16:23 14.43215 120.88205 2342 ft 179 kts 60°
2026-04-25 16:23 14.43805 120.89276 2109 ft 165 kts 60°
2026-04-25 16:23 14.44359 120.90273 1903 ft 150 kts 60°
2026-04-25 16:23 14.44856 120.91169 1768 ft 141 kts 59°
2026-04-25 16:24 14.45337 120.92033 1669 ft 138 kts 59°
2026-04-25 16:24 14.45819 120.92899 1554 ft 138 kts 59°
2026-04-25 16:24 14.46299 120.93762 1432 ft 138 kts 59°
2026-04-25 16:24 14.46776 120.94614 1279 ft 137 kts 59°
2026-04-25 16:25 14.47254 120.95467 1112 ft 137 kts 60°
2026-04-25 16:25 14.47571 120.96039 995 ft 137 kts 60°
2026-04-25 16:25 14.48207 120.97171 740 ft 136 kts 60°
2026-04-25 16:25 14.48681 120.98012 556 ft 136 kts 61°
2026-04-25 16:26 14.49148 120.98862 372 ft 136 kts 62°
2026-04-25 16:26 14.49616 120.99711 216 ft 136 kts 62°
2026-04-25 16:26 14.50084 121.00553 83 ft 130 kts 63°
2026-04-25 16:26 14.50405 121.01132 82 ft 50 kts 60°
2026-04-25 16:27 14.50555 121.01403 82 ft 41 kts 60°
2026-04-25 16:27 14.50663 121.01588 82 ft 24 kts 56°
2026-04-25 16:27 14.50749 121.01702 82 ft 15 kts 41°
2026-04-25 16:27 14.50825 121.01765 82 ft 8 kts 38°
2026-04-25 16:28 14.50866 121.01792 82 ft 5 kts
2026-04-25 16:28 14.50900 121.01772 82 ft 6 kts 299°
2026-04-25 16:28 14.50895 121.01724 82 ft 7 kts 241°
2026-04-25 16:28 14.50866 121.01673 82 ft 8 kts 240°
2026-04-25 16:29 14.50834 121.01616 82 ft 9 kts 240°
2026-04-25 16:29 14.50799 121.01551 82 ft 10 kts 240°
2026-04-25 16:29 14.50760 121.01481 82 ft 11 kts 240°
2026-04-25 16:29 14.50718 121.01406 82 ft 12 kts 239°
2026-04-25 16:30 14.50673 121.01327 82 ft 13 kts 240°
2026-04-25 16:30 14.50627 121.01244 82 ft 13 kts 240°
2026-04-25 16:30 14.50580 121.01157 82 ft 14 kts 241°
2026-04-25 16:30 14.50531 121.01067 82 ft 14 kts 240°
2026-04-25 16:31 14.50480 121.00978 82 ft 14 kts 239°
2026-04-25 16:31 14.50439 121.00903 82 ft 10 kts 240°
2026-04-25 16:31 14.50424 121.00853 82 ft 4 kts 292°
2026-04-25 16:31 14.50457 121.00837 82 ft 6 kts 351°
2026-04-25 16:32 14.50502 121.00828 82 ft 7 kts 339°
2026-04-25 16:32 14.50550 121.00801 82 ft 8 kts 330°
2026-04-25 16:32 14.50604 121.00769 82 ft 9 kts 330°
2026-04-25 16:32 14.50642 121.00726 82 ft 7 kts 296°
2026-04-25 16:33 14.50648 121.00687 82 ft 4 kts 243°
2026-04-25 16:33 14.50623 121.00670 82 ft 3 kts 202°
2026-04-25 16:33 14.50613 121.00666 82 ft 0 kts 203°
2026-04-25 16:33 14.50610 121.00665 82 ft 0 kts 203°
2026-04-25 16:34 14.50609 121.00665 82 ft 0 kts 204°
2026-04-25 16:37 14.51090 121.01359 82 ft 0 kts 220°